Weather in Moskalenky

Russia / Omsk Oblast     54°56′20″N   71°55′58″E
temp.,
°C
wind,
m/s
gust,
m/s
humid.,
%
clouds,
%
prec.,
mm/h
press.,
hPa
HPBL,
m
18 april, sun
sun1800:00+4wsw357060 0.0 101974
03:00+3sw48745 0.0 1017137
06:00+2sw4117699 0.0 1015203
09:00+5wsw61266100 0.0 1013464
12:00+10w91356100 0.1 10101781
15:00+10wnw91550100 0.0 10092195
18:00+2nnw1115595 0.3 10151276
21:00−4n10156466 0.0 10211194
19 april, mon
mon1900:00−5n811535 0.0 10231168
03:00−6n795178 0.0 10261211
06:00−7n68505 0.0 10291034
09:00−7n78425 0.0 10301131
12:00−4n673460 0.0 10311571
15:00−2n6730100 0.0 10312020
18:00−2n6731100 0.0 10312172
21:00−4n37415 0.0 1032266
20 april, tue
tue2000:00−4nne25495 0.0 1033354
03:00−5n25515 0.0 1033695
06:00−6nnw24560 0.0 1034214
09:00−4nnw34435 0.0 10341080
12:000wnw45325 0.0 10321473
15:00+3w67285 0.0 10291633
18:00+4w69359 0.0 10271694
21:00+1w51149100 0.0 1026332
21 april, wed
wed2100:00+2w61355100 0.0 1024450
03:00+2wnw61267100 0.0 1022715
06:00+1nnw7117494 0.1 1023917
09:00+2n7106592 0.0 10251194
12:00+3n8105293 0.0 10261409
15:00+5n894596 0.0 10281754
18:00+4ne894695 0.0 10301736
21:00+1ne69605 0.0 1034743
22 april, thu
thu2200:00−1nne38703 0.0 1036362
03:00−1nne48732 0.0 1038376
06:00−2nne37750 0.0 1040304
09:00+1ne45505 0.0 1042870
12:00+4ene3437100 0.0 10431418
15:00+5ene3334100 0.0 10431600
18:00+6ene223422 0.0 10431542
21:00+3ene22485 0.0 104410